[ hide orbit diagram ]
For accurate long-term ephemerides, please instead use our Horizons system.This orbit viewer was implemented using two-body methods, and hence should not be used for determining accurate long-term trajectories (over several years or decades) or planetary encounter circumstances.
Orbital Elements at Epoch 2459000.5 (2020-May-31.0) TDB
Reference: JPL 11 (heliocentric ecliptic J2000)
Element | Value | Uncertainty (1-sigma) | Units |
e | .1771201822201984 | 8.781e-08 | |
a | 2.615283467756304 | 2.2268e-08 | au |
q | 2.152063983389835 | 2.3147e-07 | au |
i | 34.13232704596263 | 1.1695e-05 | deg |
node | 6.882958756290963 | 9.5518e-06 | deg |
peri | 162.4330212861145 | 2.3784e-05 | deg |
M | 111.9758419823996 | 1.8932e-05 | deg |
tp | 2458519.994441979177 (2019-Feb-05.49444198) | 8.1311e-05 | TDB |
period | 1544.815362180405 4.23 | 1.973e-05 5.402e-08 | d yr |
n | .2330375582826182 | 2.9763e-09 | deg/d |
Q | 3.078502952122773 | 2.6212e-08 | au |
|
| | Orbit Determination Parameters
Additional Information
|
[ show covariance matrix ]
Physical Parameter Table
Parameter |
Symbol |
Value |
Units |
Sigma |
Reference |
Notes |
absolute magnitude |
H |
16.3 |
|
n/a |
MPO477033 |
|
|
434097 (2002 GT33) Discovered 2002-Apr-01 by NEAT at Palomar |
Reference: | Last Updated: 2015-06-04 |
|
[ show close-approach data ]
|